DW8306 Weather Reports


time (UTC)temp
F
wind
direction
speed
knots
gust
knots
rain 1hr
in
rain 24hr
in
rain mn
in
humidity
%
barometer
mb
20260831160003 91 10 0.9 5.2 0.00 0.00 0.00 63 1017.4
20260831154503 89 354 0.9 4.3 0.00 0.00 0.00 66 1017.4
20260831153129 89 99 0.9 2.6 0.00 0.00 0.00 68 1017.3
20260831151558 88 81 0.9 3.5 0.00 0.00 0.00 69 1017.2
20260831150053 87 80 0.0 0.0 0.00 0.00 0.00 71 1017.1
20260831144550 87 93 0.0 0.0 0.00 0.00 0.00 72 1017.0
20260831143052 86 66 0.0 0.0 0.00 0.00 0.00 74 1017.0
20260831141545 84 66 0.0 1.7 0.00 0.00 0.00 77 1016.9
20260831140039 83 66 0.0 0.9 0.00 0.00 0.00 78 1016.9
20260831134535 82 66 0.0 0.0 0.00 0.00 0.00 82 1016.8
20260831133033 80 66 0.0 0.0 0.00 0.00 0.00 84 1016.7
20260831131532 78 66 0.0 1.7 0.00 0.00 0.00 87 1016.6
20260831130029 77 54 0.0 0.0 0.00 0.00 0.00 90 1016.4
20260831124525 76 54 0.0 0.0 0.00 0.00 0.00 90 1016.2
20260831123039 75 54 0.0 0.0 0.00 0.00 0.00 91 1016.1
20260831121528 74 54 0.0 0.0 0.00 0.00 0.00 91 1015.8
20260831120033 74 54 0.0 1.7 0.00 0.00 0.00 90 1015.5
20260831114521 74 54 0.0 0.0 0.00 0.00 0.00 90 1015.3
20260831113022 74 54 0.0 0.0 0.00 0.00 0.00 89 1015.3
20260831111517 74 54 0.0 0.0 0.00 0.00 0.00 89 1015.2
20260831110014 74 54 0.0 0.0 0.00 0.00 0.00 88 1015.1
20260831104527 74 56 0.0 0.0 0.00 0.00 0.00 88 1014.9
20260831103011 74 56 0.0 0.0 0.00 0.00 0.00 88 1014.9
20260831101520 75 56 0.0 0.0 0.00 0.00 0.00 87 1014.9
20260831100022 75 56 0.0 0.0 0.00 0.00 0.00 87 1014.8
20260831094508 75 56 0.0 0.0 0.00 0.00 0.00 86 1014.9
20260831093007 75 56 0.0 0.0 0.00 0.00 0.00 86 1014.8
20260831091505 75 56 0.0 0.0 0.00 0.00 0.00 85 1014.6
20260831090004 75 56 0.0 0.0 0.00 0.00 0.00 84 1014.7
20260831084503 76 56 0.0 0.0 0.00 0.00 0.00 84 1014.6
20260831083002 76 56 0.0 0.0 0.00 0.00 0.00 83 1014.7
20260831081602 76 56 0.0 0.0 0.00 0.00 0.00 82 1014.7
20260831080053 77 56 0.0 0.0 0.00 0.00 0.00 82 1014.8
20260831074554 77 56 0.0 0.0 0.00 0.00 0.00 81 1014.8
20260831073046 77 56 0.0 0.0 0.00 0.00 0.00 80 1014.9
20260831071544 77 56 0.0 0.0 0.00 0.00 0.00 80 1014.9
20260831070106 78 56 0.0 0.0 0.00 0.00 0.00 79 1015.0
20260831064539 78 56 0.0 0.9 0.00 0.00 0.00 79 1014.9
20260831063037 78 56 0.0 0.0 0.00 0.00 0.00 78 1014.9
20260831061537 79 68 0.0 0.0 0.00 0.00 0.00 78 1014.8
20260831060044 79 75 0.0 0.0 0.00 0.00 0.00 78 1014.8
20260831054535 79 65 0.0 0.0 0.00 0.00 0.00 79 1014.8
20260831053032 79 65 0.0 0.0 0.00 0.00 0.00 78 1014.8
20260831051545 80 66 0.0 0.0 0.00 0.00 0.00 78 1014.8
20260831050027 80 66 0.0 0.0 0.00 0.00 0.00 78 1014.9
20260831044526 80 78 0.0 0.9 0.00 0.00 0.00 79 1014.7
20260831043026 80 304 0.0 0.0 0.00 0.00 0.00 78 1014.5
20260831041532 81 304 0.0 0.9 0.00 0.00 0.00 78 1014.5
20260831040040 81 304 0.0 0.9 0.00 0.00 0.00 77 1014.5
20260831034524 82 304 0.0 0.0 0.00 0.00 0.00 76 1014.5
20260831033026 82 304 0.0 0.0 0.00 0.00 0.00 76 1014.5
20260831031525 83 304 0.0 0.0 0.00 0.00 0.00 75 1014.3
20260831030022 83 304 0.0 0.0 0.00 0.00 0.00 74 1014.1
20260831024522 84 304 0.0 0.9 0.00 0.00 0.00 74 1013.8
20260831023034 84 112 0.0 3.5 0.00 0.00 0.00 73 1013.6
20260831021544 84 120 0.0 0.9 0.00 0.00 0.00 73 1013.5
20260831020021 85 154 0.0 0.0 0.00 0.00 0.00 72 1013.2
20260831014521 85 154 0.0 0.0 0.00 0.00 0.00 70 1013.0
20260831013019 86 69 0.0 0.0 0.00 0.00 0.00 68 1012.9
20260831011519 87 69 0.0 0.0 0.00 0.00 0.00 66 1012.8
20260831010037 88 69 0.0 0.9 0.00 0.00 0.00 63 1012.8
20260831004518 89 69 0.0 0.0 0.00 0.00 0.00 62 1012.7
20260831003013 90 69 0.0 0.9 0.00 0.00 0.00 61 1012.6
20260831001528 92 69 0.0 0.9 0.00 0.00 0.00 57 1012.7
20260831000012 94 69 0.0 0.9 0.00 0.00 0.00 55 1012.7
20260830234510 95 69 0.0 0.9 0.00 0.00 0.00 51 1012.6
20260830233010 96 69 0.0 1.7 0.00 0.00 0.00 48 1012.5
20260830231518 97 169 0.0 0.0 0.00 0.00 0.00 49 1012.6
20260830230009 98 160 0.0 1.7 0.00 0.00 0.00 45 1012.6
20260830224509 99 311 0.0 0.0 0.00 0.00 0.00 47 1012.5
20260830223015 99 221 0.0 3.5 0.00 0.00 0.00 47 1012.6
20260830221506 99 216 0.0 0.9 0.00 0.00 0.00 47 1012.6
20260830220008 99 208 0.0 0.9 0.00 0.00 0.00 48 1012.6
20260830214504 99 139 0.0 1.7 0.00 0.00 0.00 42 1012.8
20260830213002 99 77 0.9 2.6 0.00 0.00 0.00 42 1012.9
20260830211506 99 83 0.0 3.5 0.00 0.00 0.00 45 1013.0
20260830210103 99 349 0.0 4.3 0.00 0.00 0.00 45 1013.1
20260830204556 100 111 1.7 5.2 0.00 0.00 0.00 41 1013.3
20260830203110 99 162 0.0 1.7 0.00 0.00 0.00 44 1013.6
20260830201552 98 25 2.6 4.3 0.00 0.00 0.00 44 1013.8
20260830200048 98 41 0.0 4.3 0.00 0.00 0.00 48 1014.1
20260830194547 99 44 0.0 3.5 0.00 0.00 0.00 49 1014.4
20260830193044 97 66 0.9 6.1 0.00 0.00 0.00 50 1014.6
20260830191542 97 110 0.0 4.3 0.00 0.00 0.00 53 1014.9
20260830190041 97 80 0.0 2.6 0.00 0.00 0.00 49 1015.1
20260830184541 96 151 0.0 4.3 0.00 0.00 0.00 54 1015.2
20260830183038 97 78 0.0 1.7 0.00 0.00 0.00 54 1015.3
20260830181545 97 97 0.0 1.7 0.00 0.00 0.00 56 1015.3
20260830180050 95 156 0.0 1.7 0.00 0.00 0.00 58 1015.5
20260830174533 93 77 2.6 5.2 0.00 0.00 0.00 57 1015.6
20260830173052 93 30 0.0 1.7 0.00 0.00 0.00 60 1015.8
20260830171530 93 131 0.9 3.5 0.00 0.00 0.00 59 1015.8
20260830170027 93 83 0.9 3.5 0.00 0.00 0.00 58 1015.9
20260830164525 93 135 0.0 4.3 0.00 0.00 0.00 60 1016.2
20260830163022 92 95 0.0 1.7 0.00 0.00 0.00 59 1016.3
20260830161522 92 313 0.0 3.5 0.00 0.00 0.00 59 1016.5